Flag for United Kingdom Weather past 2 weeks in Haywards Heath, England, United Kingdom

Now
57 °F

Clear.


Feels Like: 57 °F
Forecast: 54 / 65 °F
Wind: 3 mph from North

Location: London / Gatwick Airport

Current Time: Aug 28, 2015 at 11:35:25 PM

Latest Report: Aug 28, 2015 at 10:50 PM


Visibility: 10 mi

Pressure: 30.12 "Hg

Humidity: 88%

Dew point: 54 °F

Location of Haywards HeathLocation

Historic Weather in Haywards Heath — Graph

°F

Haywards Heath temperature yesterday

Maximum temperature yesterday: 64 °F (at 1:20 PM)
Minimum temperature yesterday: 54 °F (at 9:20 PM)
Average temperature yesterday: 59 °F

Past Weeks' High & Low Weather Summary

 TemperatureHumidityPressure
High82 °F (Aug 22, 3:50 PM)100% (Aug 14, 5:20 AM)30.15 "Hg (Aug 14, 5:20 AM)
Low45 °F (Aug 28, 5:20 AM)38% (Aug 17, 1:50 PM)29.39 "Hg (Aug 24, 1:20 PM)
Average62 °F82%29.88 "Hg
* Reported Aug 13 10:20 PM — Aug 28 10:20 PM, Haywards Heath, Weather by CustomWeather, © 2015

Note: Actual official high and low records may vary slightly from our data, if they occured in-between our weather recording intervals... More about our weather records

Advertising

Haywards Heath weather history for previous 24 hours

 ConditionsComfort  
Time TempWeatherWind HumidityBarometerVisibility
10:20 PM
Fri, Aug 28
57 °FClear.5 mph88%30.12 "Hg10 mi
9:50 PM59 °FClear.6 mph82%30.12 "Hg10 mi
9:20 PM59 °FClear.5 mph82%30.12 "Hg10 mi
8:50 PM59 °FSunny.7 mph82%30.09 "Hg10 mi
8:20 PM59 °FPassing clouds.7 mph82%30.09 "HgN/A
7:50 PM61 °FSunny.8 mph77%30.09 "Hg10 mi
7:20 PM61 °FPassing clouds.10 mph77%30.09 "HgN/A
6:50 PM63 °FPassing clouds.9 mph68%30.09 "HgN/A
6:20 PM64 °FPassing clouds.12 mph64%30.07 "HgN/A
5:50 PM66 °FPassing clouds.12 mph56%30.07 "HgN/A
5:20 PM66 °FPassing clouds.12 mph56%30.07 "HgN/A
4:50 PM66 °FPassing clouds.13 mph56%30.07 "HgN/A
4:20 PM68 °FPassing clouds.13 mph53%30.07 "HgN/A
3:50 PM68 °FPassing clouds.13 mph56%30.07 "HgN/A
3:20 PM68 °FPassing clouds.13 mph56%30.07 "HgN/A
2:50 PM68 °FPassing clouds.12 mph56%30.07 "HgN/A
2:20 PM66 °FPassing clouds.9 mph64%30.04 "HgN/A
1:50 PM66 °FPassing clouds.9 mph68%30.07 "HgN/A
1:20 PM61 °FScattered clouds.10 mph88%30.07 "HgN/A
12:50 PM63 °FScattered clouds.8 mph73%30.04 "HgN/A
12:20 PM63 °FSprinkles. Scattered clouds.9 mph73%30.04 "HgN/A
11:50 AM64 °FScattered clouds.10 mph68%30.04 "HgN/A
11:20 AM64 °FPassing clouds.10 mph68%30.04 "HgN/A
10:50 AM63 °FPassing clouds.10 mph73%30.04 "HgN/A
10:20 AM63 °FPassing clouds.9 mph77%30.04 "HgN/A
9:50 AM61 °FPassing clouds.10 mph83%30.04 "HgN/A
9:20 AM61 °FPassing clouds.8 mph77%30.01 "HgN/A
8:50 AM55 °FPassing clouds.2 mph100%30.01 "HgN/A
8:20 AM54 °FFog.2 mph100%30.01 "HgN/A
7:50 AM52 °FFog.No wind100%30.01 "HgN/A
7:20 AM46 °FLight fog.No wind100%29.98 "Hg4 mi
6:50 AM46 °FLight fog.No wind93%29.98 "Hg5 mi
6:20 AM45 °FQuite cool.No wind100%29.95 "HgN/A
5:50 AM45 °FFog.No wind100%29.95 "Hg3 mi
5:20 AM45 °FClear.No wind100%29.95 "Hg4 mi
4:50 AM46 °FClear.No wind100%29.95 "Hg6 mi
4:20 AM46 °FClear.No wind100%29.92 "Hg4 mi
3:50 AM46 °FPassing clouds.No wind100%29.92 "Hg4 mi
3:20 AM46 °FClear.No wind100%29.92 "Hg5 mi
2:50 AM48 °FClear.No wind100%29.92 "Hg6 mi
2:20 AM50 °FClear.2 mph100%29.89 "Hg10 mi
1:50 AM50 °FFog.No wind94%29.89 "Hg6 mi
1:20 AM50 °FFog.No wind100%29.89 "Hg6 mi
12:50 AM52 °FClear.2 mph100%29.89 "Hg6 mi
12:20 AM52 °FClear.3 mph100%29.89 "Hg10 mi
11:50 PM
Thu, Aug 27
54 °FClear.5 mph94%29.89 "Hg10 mi
11:20 PM54 °FClear.3 mph94%29.86 "Hg10 mi
Weather by CustomWeather, © 2015

See weather overviewHow to use our weather pages